Cloud_Cover
5 5 5 91 5 4 0 0 0 0 0 0 0 0 0 2 0 2 4 7 0 0 0 8 3 26 51 96 86 30 9 5 0 0 0 0 0 0 0 11 0 13 2
5 5 5 100 58 5 4 5 0 0 0 0 1 0 0 33 36 86 47 0 0 0 59 7 4 0 99 100 98 89 100 40 0 0 0 0 0 0 2 0 0 58 0
8 54 6 97 97 12 5 1 5 0 0 6 52 1 0 2 14 84 11 5 3 5 5 5 4 1 0 1 0 0 0 0 0 0 0 0 0 0 0 0 0 0 0
98 66 86 88 100 67 10 11 12 6 4 2 6 0 0 17 65 0 1 4 5 4 32 26 36 38 25 37 5 5 0 0 0 0 0 0 0 0 0 0 0 1 1
14 84 52 87 100 63 16 19 16 11 5 5 5 2 14 0 0 0 0 0 0 0 5 35 97 100 96 10 1 79 50 15 0 0 0 0 0 0 0 0 1 28 19
98 83 59 72 94 35 35 90 49 36 5 5 5 5 2 39 1 4 0 0 2 0 0 0 4 6 5 5 4 5 22 5 0 0 0 0 0 0 0 0 0 0 0
95 100 93 100 97 92 100 100 100 89 26 5 5 5 2 29 34 94 7 4 5 4 3 1 5 18 5 69 51 11 9 1 0 1 0 0 1 0 0 62 51 0 4
63 79 100 100 100 100 100 100 100 100 100 66 16 5 5 5 5 5 28 0 2 19 16 5 7 37 100 100 100 36 5 5 9 26 15 7 2 0 11 97 33 18 6
6 5 88 100 100 100 100 100 100 100 100 100 88 38 5 0 1 5 36 31 14 42 84 97 100 90 23 27 24 4 3 5 5 2 0 0 0 0 1 77 97 23 58
5 4 4 54 100 100 100 100 100 100 100 100 100 100 87 50 48 7 5 3 6 13 10 100 100 100 88 7 71 32 6 40 5 5 0 0 0 0 0 0 0 8 7
5 0 4 86 30 94 100 100 100 100 100 100 100 100 100 94 100 55 56 100 100 59 75 100 100 94 79 95 78 45 18 6 5 0 0 1 0 0 0 0 0 0 0
0 1 7 21 92 82 90 94 100 98 100 100 100 100 100 100 100 100 100 100 100 100 89 6 5 12 22 67 84 75 15 5 5 1 0 0 0 0 3 3 0 0 0
0 0 15 41 73 61 75 76 100 100 100 100 100 100 100 100 100 100 100 100 100 100 97 73 66 32 11 6 29 28 5 5 0 2 0 0 0 0 3 5 0 0 0
0 0 0 76 58 74 97 99 100 99 98 100 100 100 100 100 100 100 99 42 12 67 80 100 97 72 57 55 7 5 5 4 0 1 0 0 0 0 4 4 5 0 2
0 0 0 4 99 86 90 85 100 87 100 85 46 42 41 53 22 23 6 5 5 20 85 67 24 72 9 31 47 43 5 4 0 0 0 0 0 0 0 0 0 0 0
2 0 0 0 65 98 100 79 79 84 73 94 22 5 18 41 25 83 88 92 73 10 59 63 31 32 21 10 62 5 5 5 2 0 0 1 0 0 0 0 0 0 0
3 4 0 0 0 100 100 93 77 58 61 92 58 50 39 5 37 76 98 98 10 20 29 72 80 98 35 50 99 61 57 13 5 3 5 5 0 0 0 0 0 0 0
0 5 4 2 0 92 100 97 69 76 71 79 63 36 12 36 89 100 100 88 14 99 99 93 95 100 100 100 100 94 24 74 5 5 5 4 0 0 0 0 0 0 0
0 0 1 4 0 1 97 100 83 85 75 29 100 85 100 100 100 77 56 12 24 100 100 100 100 100 100 100 100 100 86 30 16 8 5 0 0 0 0 0 0 0 0
0 0 0 0 0 0 100 100 100 90 43 80 100 100 87 100 100 5 5 5 19 76 100 100 100 100 100 100 100 98 49 87 6 5 0 0 0 0 0 0 0 0 0
0 0 0 0 0 76 100 100 73 87 85 82 100 100 100 100 100 7 5 100 100 24 12 56 51 100 100 64 9 39 5 5 4 0 0 0 0 0 0 0 0 0 0
0 0 0 0 8 97 99 99 58 100 90 58 37 100 100 100 100 26 21 67 80 57 79 69 99 100 100 67 5 5 5 12 4 0 0 0 0 0 0 0 0 0 0
0 0 0 0 13 36 100 100 84 40 84 100 100 100 100 100 100 2 65 78 98 60 80 91 80 65 99 100 6 5 45 29 1 0 0 0 0 0 0 0 0 0 0
0 0 0 2 0 96 100 100 2 0 42 100 100 99 100 100 86 4 83 100 84 41 67 99 34 47 93 50 5 6 8 3 0 0 0 0 0 0 0 0 0 0 0
0 0 0 54 6 73 100 100 24 0 0 11 99 100 100 100 9 0 5 6 35 58 22 5 6 100 81 7 5 25 0 0 0 0 0 0 0 0 0 1 5 5 0
0 0 11 58 32 20 76 100 52 5 4 4 100 100 100 88 0 0 0 4 4 5 5 5 21 23 5 5 2 0 0 0 0 0 0 0 0 2 5 5 5 5 0